Stations météo

réclame
Mon MeteoGroup
Nice, France (7690): Température de l'air & dewpoint: 13.11.2017 18:00:00 - 19.11.2017 18:00:00 (CET)Nice, France (7690): Température de l'air 5cm: 13.11.2017 18:00:00 - 19.11.2017 18:00:00 (CET)Nice, France (7690): Température de l'air -20cm & Température de l'air -100cm: 13.11.2017 18:00:00 - 19.11.2017 18:00:00 (CET)Nice, France (7690): Vitesse du vent & gusts: 13.11.2017 18:00:00 - 19.11.2017 18:00:00 (CET)Nice, France (7690): Direction du vent: 13.11.2017 18:00:00 - 19.11.2017 18:00:00 (CET)Nice, France (7690): reduced air pressure: 13.11.2017 18:00:00 - 19.11.2017 18:00:00 (CET)Nice, France (7690): visibility: 13.11.2017 18:00:00 - 19.11.2017 18:00:00 (CET)Nice, France (7690): Ensoleillement: 13.11.2017 18:00:00 - 19.11.2017 18:00:00 (CET)Nice, France (7690): Quantités de précipitations: 13.11.2017 18:00:00 - 19.11.2017 18:00:00 (CET)
Date & Time tt [°C] td [°C] tt 5cm [°C] tt -20cm [°C] tt -100cm [°C] ff [km/h] ff [knt] fx [km/h] fx [knt] dd ppp [hPa] vv [km] sd [min] rr [mm]
19.11.2017 18:00:00 13,7 9,5 11,8 15,2 17,4 9 5 14 8 ENE 1013,5 10 0 0,0
19.11.2017 17:00:00 14,0 9,2 12,7 15,2 17,2 10 5 14 7 E 1012,8 40 13 0,0
19.11.2017 16:00:00 14,6 9,0 15,2 15,2 17,3 6 3 10 6 SE 1012,6 40 37 0,0
19.11.2017 15:00:00 15,1 8,6 17,3 15,2 17,2 5 3 10 5 SSE 1012,1 40 60 0,0
19.11.2017 14:00:00 15,0 7,5 17,9 15,3 17,3 5 3 10 5 - 1012,7 10 60 0,0
19.11.2017 13:00:00 15,7 5,6 17,9 15,3 17,5 5 3 7 4 - 1013,0 10 60 0,0
19.11.2017 12:00:00 15,3 4,6 16,0 15,3 17,5 4 2 17 9 - 1013,3 10 60 0,0
19.11.2017 11:00:00 12,8 0,8 13,6 15,3 17,2 14 7 21 11 NNW 1014,1 40 43 0,0
19.11.2017 10:00:00 11,0 1,0 10,4 15,3 17,4 18 10 23 13 NNW 1014,1 10 33 0,0
19.11.2017 09:00:00 9,5 0,9 8,2 15,3 17,5 16 9 24 13 NNW 1014,2 10 37 0,0
19.11.2017 08:00:00 8,2 1,1 7,3 15,3 17,4 16 9 24 13 NNW 1013,8 10 0 0,0
19.11.2017 07:00:00 8,3 1,4 7,4 15,3 17,5 16 9 29 16 NNW 1013,6 10 0 0,0
19.11.2017 06:00:00 8,8 1,9 7,7 15,3 17,4 17 9 24 13 NNW 1013,5 30 0 0,0
19.11.2017 05:00:00 9,0 2,3 7,8 15,3 17,6 18 10 29 16 NNW 1014,1 10 0 0,0
19.11.2017 04:00:00 9,2 3,2 8,3 15,3 17,5 21 11 27 15 NNW 1014,5 10 0 0,0
19.11.2017 03:00:00 9,6 3,8 8,7 15,3 17,5 21 11 28 15 NW 1015,1 30 0 0,0
19.11.2017 02:00:00 10,0 4,8 9,1 15,3 17,4 20 11 28 15 NNW 1015,6 30 0 0,0
19.11.2017 01:00:00 10,5 5,5 9,5 15,3 17,5 19 10 25 14 NW 1016,1 30 0 0,0
19.11.2017 00:00:00 11,1 6,0 9,7 15,3 17,5 15 8 19 11 NNW 1016,8 10 0 0,0
18.11.2017 23:00:00 11,0 6,5 9,3 15,3 17,6 15 8 22 12 NNW 1016,8 10 0 0,0
18.11.2017 22:00:00 10,9 7,2 9,8 15,3 17,6 14 8 19 11 NNW 1017,2 20 0 0,0
18.11.2017 21:00:00 11,6 8,1 10,7 15,3 17,6 12 7 17 9 NNW 1017,2 20 0 0,0
18.11.2017 20:00:00 11,8 8,5 10,9 15,3 17,5 13 7 16 8 NNW 1017,0 10 0 0,0
18.11.2017 19:00:00 12,2 8,7 10,3 15,3 17,7 9 5 11 6 NNW 1017,0 30 0 0,0
18.11.2017 18:00:00 14,3 9,7 11,5 15,3 17,8 3 2 19 10 WNW 1016,7 40 0 0,0
18.11.2017 17:00:00 15,4 10,2 14,5 15,3 17,5 14 8 24 13 SW 1016,6 50 47 0,0
18.11.2017 16:00:00 16,2 9,6 17,5 15,3 17,6 15 8 22 12 SW 1016,3 10 60 0,0
18.11.2017 15:00:00 16,3 9,7 19,7 15,3 17,7 16 9 20 11 SSW 1016,5 50 60 0,0
18.11.2017 14:00:00 16,3 9,9 21,0 15,3 17,7 13 7 21 11 S 1016,5 10 60 0,0
18.11.2017 13:00:00 16,4 10,0 20,3 15,3 17,6 9 5 14 7 S 1017,0 10 60 0,0
18.11.2017 12:00:00 17,5 7,0 18,4 15,3 17,6 4 2 16 9 - 1017,4 10 60 0,0
18.11.2017 11:00:00 14,7 0,5 15,7 15,3 17,8 14 8 23 12 NNW 1017,6 50 60 0,0
18.11.2017 10:00:00 12,4 0,8 12,4 15,3 17,4 16 9 28 15 NNW 1017,4 10 60 0,0
18.11.2017 09:00:00 10,5 0,8 9,8 15,3 17,4 22 12 30 16 NNW 1017,3 50 60 0,0
18.11.2017 08:00:00 9,4 0,5 8,5 15,4 17,8 16 9 26 14 NNW 1016,9 10 19 0,0
18.11.2017 07:00:00 9,3 0,7 8,3 15,4 17,8 16 9 26 14 NNW 1016,5 10 0 0,0
18.11.2017 06:00:00 9,2 1,1 8,4 15,4 17,6 18 10 25 14 NNW 1016,4 50 0 0,0
18.11.2017 05:00:00 9,5 1,1 8,8 15,4 17,7 21 11 27 15 NNW 1016,5 10 0 0,0
18.11.2017 04:00:00 9,7 1,6 8,8 15,3 17,5 16 9 23 12 NNW 1016,5 50 0 0,0
18.11.2017 03:00:00 10,0 1,9 8,8 15,4 17,7 16 9 23 12 NNW 1016,8 50 0 0,0
18.11.2017 02:00:00 10,1 2,4 9,5 15,4 17,7 18 10 27 15 NNW 1016,8 10 0 0,0
18.11.2017 01:00:00 10,5 2,8 9,6 15,4 17,7 22 12 27 14 NNW 1016,8 50 0 0,0
18.11.2017 00:00:00 10,6 3,6 9,6 15,4 17,8 13 7 21 11 NNW 1016,8 10 0 0,0
17.11.2017 23:00:00 10,9 4,6 9,7 15,4 17,6 13 7 23 13 NNW 1016,9 10 0 0,0
17.11.2017 22:00:00 10,9 5,2 9,8 15,4 17,7 13 7 19 11 NNW 1016,7 10 0 0,0
17.11.2017 21:00:00 11,0 6,3 9,9 15,4 17,8 15 8 19 10 NNW 1016,2 10 0 0,0
17.11.2017 20:00:00 11,6 6,9 10,6 15,4 17,7 11 6 18 10 NNW 1016,0 50 0 0,0
17.11.2017 19:00:00 12,6 7,7 11,4 15,4 17,8 13 7 16 9 NW 1016,0 10 0 0,0
17.11.2017 18:00:00 14,4 8,3 11,8 15,4 17,8 5 3 11 6 WSW 1015,8 10 0 0,0
17.11.2017 17:00:00 15,6 7,9 14,2 15,4 17,8 9 5 14 7 SW 1015,6 50 52 0,0
17.11.2017 16:00:00 16,7 8,6 19,0 15,4 17,7 11 6 16 9 SSW 1015,6 10 60 0,0
17.11.2017 15:00:00 16,9 8,6 20,9 15,4 17,8 11 6 15 8 SSW 1015,8 10 60 0,0
17.11.2017 14:00:00 17,0 8,4 20,3 15,4 17,8 9 5 16 8 SSW 1016,3 10 60 0,0
17.11.2017 13:00:00 16,8 7,2 20,7 15,5 17,8 11 6 15 8 S 1016,6 50 60 0,0
17.11.2017 12:00:00 17,4 5,3 18,7 15,4 17,8 5 3 19 10 - 1017,2 10 60 0,0
17.11.2017 11:00:00 15,1 0,5 16,0 15,5 17,8 13 7 24 13 NNW 1017,6 10 60 0,0
17.11.2017 10:00:00 12,9 0,3 13,2 15,5 17,8 21 11 30 16 NNW 1017,3 10 60 0,0
17.11.2017 09:00:00 11,1 -0,1 10,1 15,5 17,9 21 11 32 17 NNW 1017,3 10 60 0,0
17.11.2017 08:00:00 9,6 -0,3 8,9 15,5 17,8 21 11 32 18 NNW 1016,9 10 18 0,0
17.11.2017 07:00:00 9,7 -0,5 8,8 15,5 17,9 18 10 27 14 NNW 1016,6 10 0 0,0
17.11.2017 06:00:00 9,7 -0,5 8,6 15,5 17,9 20 11 28 15 NNW 1016,7 50 0 0,0
17.11.2017 05:00:00 9,8 -0,4 9,1 15,5 17,9 20 11 29 16 NNW 1016,8 50 0 0,0
17.11.2017 04:00:00 10,2 -0,3 9,5 15,5 17,9 24 13 29 16 NNW 1016,8 10 0 0,0
17.11.2017 03:00:00 10,5 -0,4 9,7 15,5 17,9 18 10 27 15 NNW 1016,9 10 0 0,0
17.11.2017 02:00:00 10,8 -0,4 9,9 15,5 17,9 20 11 28 15 NNW 1017,0 50 0 0,0
17.11.2017 01:00:00 11,3 -0,2 10,4 15,5 17,9 18 10 26 14 NNW 1017,0 10 0 0,0
17.11.2017 00:00:00 11,1 0,2 10,1 15,5 17,9 21 11 28 15 NNW 1017,3 10 0 0,0
16.11.2017 23:00:00 11,7 0,4 10,3 15,5 17,9 13 7 20 11 NNW 1017,3 10 0 0,0
16.11.2017 22:00:00 11,6 0,7 10,3 15,5 18,0 16 9 23 12 NNW 1017,3 10 0 0,0
16.11.2017 21:00:00 11,8 1,1 10,2 15,6 18,0 16 9 22 12 NNW 1017,4 10 0 0,0
16.11.2017 20:00:00 11,8 1,4 10,6 15,6 18,0 15 8 19 10 NNW 1017,2 10 0 0,0
16.11.2017 19:00:00 12,2 2,6 10,3 15,6 18,0 15 8 19 10 NW 1017,1 50 0 0,0
16.11.2017 18:00:00 13,2 5,4 10,6 15,6 18,0 5 3 8 4 NNE 1017,0 10 0 0,0
16.11.2017 17:00:00 15,2 6,5 12,9 15,6 18,0 5 3 12 7 W 1016,6 10 52 0,0
16.11.2017 16:00:00 17,5 6,4 19,7 15,6 18,0 11 6 17 9 SSW 1016,9 50 60 0,0
16.11.2017 15:00:00 17,9 5,5 21,4 15,7 18,0 14 8 18 10 SSW 1017,1 50 60 0,0
16.11.2017 14:00:00 17,9 4,1 21,0 15,6 18,0 7 4 10 6 S 1017,6 50 60 0,0
16.11.2017 13:00:00 16,9 2,8 20,7 15,7 18,0 8 4 10 5 SSE 1018,2 10 60 0,0
16.11.2017 12:00:00 17,1 -2,1 18,7 15,7 18,1 8 4 20 11 NNW 1018,6 10 60 0,0
16.11.2017 11:00:00 14,9 -1,7 15,4 15,7 18,1 16 9 25 14 NW 1019,2 10 60 0,0
16.11.2017 10:00:00 12,6 -2,5 12,4 15,7 18,1 21 11 31 17 NW 1019,3 10 60 0,0
16.11.2017 09:00:00 10,2 -2,2 9,5 15,7 18,0 24 13 37 20 NNW 1019,3 10 60 0,0
16.11.2017 08:00:00 8,8 -2,5 8,0 15,7 18,1 26 14 35 19 NNW 1019,2 10 23 0,0
16.11.2017 07:00:00 8,7 -2,3 8,0 15,7 18,1 23 12 31 17 NNW 1018,8 50 0 0,0
16.11.2017 06:00:00 9,1 -2,2 8,4 15,8 18,1 21 11 32 17 NNW 1018,6 10 0 0,0
16.11.2017 05:00:00 9,4 -2,3 8,6 15,8 18,2 24 13 31 17 NNW 1018,5 10 0 0,0
16.11.2017 04:00:00 9,3 -2,0 8,4 15,8 18,1 24 13 33 18 NNW 1018,3 10 0 0,0
16.11.2017 03:00:00 9,6 -2,4 8,6 15,8 18,2 22 12 32 17 NNW 1018,3 10 0 0,0
16.11.2017 02:00:00 9,9 -2,1 8,9 15,8 18,2 22 12 31 17 NNW 1018,4 30 0 0,0
16.11.2017 01:00:00 10,2 -1,8 9,2 15,8 18,1 22 12 31 17 NNW 1018,3 10 0 0,0
16.11.2017 00:00:00 10,1 -1,6 9,0 15,8 18,2 21 11 30 16 NNW 1018,5 10 0 0,0
15.11.2017 23:00:00 10,1 -1,0 9,3 15,9 18,2 24 13 32 18 NNW 1018,7 50 0 0,0
15.11.2017 22:00:00 10,9 -1,2 9,3 15,9 18,2 18 10 24 13 NNW 1018,4 10 0 0,0
15.11.2017 21:00:00 11,3 -0,5 8,9 15,9 18,2 16 9 23 13 NNW 1018,1 10 0 0,0
15.11.2017 20:00:00 11,6 0,7 10,1 15,9 18,2 16 9 20 11 NNW 1017,6 10 0 0,0
15.11.2017 19:00:00 11,9 2,3 9,9 15,9 18,2 9 5 17 9 NW 1017,1 10 0 0,0
15.11.2017 18:00:00 13,9 5,0 10,4 16,0 18,3 8 4 18 10 NW 1016,4 10 0 0,0
15.11.2017 17:00:00 16,5 6,3 15,1 16,0 18,2 15 8 22 12 SW 1016,1 10 56 0,0
15.11.2017 16:00:00 18,3 6,2 18,9 16,0 18,4 18 10 22 12 SSW 1015,8 10 60 0,0
15.11.2017 15:00:00 18,4 1,8 17,9 16,0 18,1 15 8 19 11 SW 1015,5 10 17 0,0
15.11.2017 14:00:00 17,4 3,6 18,3 16,0 18,1 9 5 15 8 SW 1015,8 10 0 0,0
15.11.2017 13:00:00 16,7 1,9 18,2 16,1 18,1 5 3 14 8 SSW 1016,1 10 14 0,0
15.11.2017 12:00:00 15,6 -3,4 15,3 16,1 18,1 11 6 21 11 NW 1016,6 50 4 0,0
15.11.2017 11:00:00 14,1 -3,7 15,0 16,1 18,6 17 9 27 15 NNW 1016,6 50 47 0,0
15.11.2017 10:00:00 12,2 -4,5 12,1 16,1 18,3 22 12 33 18 NW 1016,5 10 60 0,0
15.11.2017 09:00:00 10,1 -4,7 9,5 16,1 18,5 24 13 33 18 NNW 1016,2 10 60 0,0
15.11.2017 08:00:00 8,6 -4,6 7,6 16,1 18,3 21 11 36 19 NNW 1015,8 10 15 0,0
15.11.2017 07:00:00 8,6 -4,9 7,5 16,1 18,4 26 14 33 18 NNW 1015,2 10 0 0,0
15.11.2017 06:00:00 8,7 -5,2 7,7 16,2 18,4 22 12 30 16 NNW 1014,8 30 0 0,0
15.11.2017 05:00:00 9,0 -5,3 8,1 16,2 18,4 18 10 30 16 NNW 1014,6 10 0 0,0
15.11.2017 04:00:00 9,0 -4,9 8,1 16,2 18,4 21 11 35 19 NNW 1014,5 10 0 0,0
15.11.2017 03:00:00 9,3 -5,4 8,4 16,2 18,4 24 13 37 20 NNW 1014,8 10 0 0,0
15.11.2017 02:00:00 9,6 -5,5 8,7 16,2 18,4 22 12 34 19 NNW 1015,1 10 0 0,0
15.11.2017 01:00:00 10,0 -5,6 9,0 16,2 18,4 24 13 34 18 NNW 1015,3 30 0 0,0
15.11.2017 00:00:00 10,3 -5,7 9,2 16,3 18,4 13 7 28 15 N 1015,5 10 0 0,0
14.11.2017 23:00:00 10,6 -5,4 9,2 16,3 18,4 20 11 28 15 NNW 1015,1 30 0 0,0
14.11.2017 22:00:00 10,4 -5,2 8,9 16,3 18,4 17 9 26 14 NNW 1015,7 30 0 0,0
14.11.2017 21:00:00 10,2 -5,0 8,0 16,3 18,4 16 9 23 13 NNW 1016,0 10 0 0,0
14.11.2017 20:00:00 10,3 -4,5 8,3 16,3 18,4 15 8 21 11 NW 1015,7 50 0 0,0
14.11.2017 19:00:00 10,8 -4,1 8,6 16,3 18,4 11 6 17 9 NW 1015,4 10 0 0,0
14.11.2017 18:00:00 13,5 -5,7 9,4 16,4 18,4 9 5 16 9 NW 1014,9 10 0 0,0
14.11.2017 17:00:00 14,9 -4,5 13,2 16,4 18,6 13 7 27 15 WSW 1014,5 10 58 0,0
14.11.2017 16:00:00 16,8 -6,3 17,7 16,4 18,6 16 9 27 15 WSW 1014,3 10 60 0,0
14.11.2017 15:00:00 17,3 -2,4 19,6 16,4 18,6 15 8 26 14 SW 1013,6 10 60 0,0
14.11.2017 14:00:00 17,5 -2,8 20,2 16,5 18,5 11 6 26 14 S 1013,4 10 60 0,0
14.11.2017 13:00:00 16,9 -3,3 19,6 16,4 18,7 13 7 21 11 SW 1014,0 10 60 0,0
14.11.2017 12:00:00 17,0 -6,8 18,5 16,5 18,4 9 5 19 10 WNW 1014,0 50 60 0,0
14.11.2017 11:00:00 15,5 -6,2 15,6 16,5 18,5 8 4 15 8 W 1014,4 10 60 0,0
14.11.2017 10:00:00 11,4 -8,0 11,8 16,5 18,4 9 5 24 13 NNW 1013,9 50 60 -
14.11.2017 09:00:00 9,2 -7,5 9,0 16,5 18,6 21 11 31 17 NNW 1013,4 10 60 0,0
14.11.2017 08:00:00 8,0 -7,7 6,7 16,5 18,6 22 12 29 16 NNW 1012,6 10 20 0,0
14.11.2017 07:00:00 8,1 -7,6 7,2 16,5 18,5 22 12 28 15 NNW 1011,7 10 0 0,0
14.11.2017 06:00:00 8,2 -7,5 6,1 16,5 18,6 18 10 27 15 NNW 1010,9 10 0 0,0
14.11.2017 05:00:00 7,0 -6,7 5,9 16,6 18,6 18 10 32 18 NNW 1010,2 10 0 0,0
14.11.2017 04:00:00 7,8 -7,1 6,1 16,6 18,6 28 15 33 18 NW 1009,4 10 0 0,0
14.11.2017 03:00:00 7,9 -7,0 5,7 16,6 18,6 22 12 27 14 NW 1009,3 10 0 0,0
14.11.2017 02:00:00 7,6 -5,8 6,0 16,6 18,6 18 10 24 13 NW 1008,9 10 0 0,0
14.11.2017 01:00:00 8,4 -4,8 6,7 16,6 18,6 11 6 21 11 WNW 1008,4 30 0 0,0
14.11.2017 00:00:00 8,4 -4,4 7,1 16,6 18,7 11 6 19 11 NNW 1008,0 30 0 0,0
13.11.2017 23:00:00 8,7 -3,2 7,2 16,6 18,6 14 7 19 10 NNW 1007,4 30 0 0,0
13.11.2017 22:00:00 9,2 -3,7 7,2 16,6 18,7 13 7 19 11 NW 1006,6 10 0 0,0
13.11.2017 21:00:00 12,3 -6,7 7,6 16,6 18,7 0 0 18 10 N 1006,2 10 0 0,0
13.11.2017 20:00:00 14,0 -8,0 10,8 16,6 18,7 9 5 42 23 NNE 1005,6 10 0 0,0
13.11.2017 19:00:00 12,0 -3,8 10,8 16,6 18,7 16 9 27 15 NNE 1004,8 10 0 0,0
13.11.2017 18:00:00 13,7 -3,6 10,7 16,6 18,7 8 4 14 7 WSW 1003,3 10 0 0,0

tt = Température de l'air
td = dewpoint
tt 5cm = Température de l'air 5cm
tt -20cm = Température de l'air -20cm
tt -100cm = Température de l'air -100cm
ff = Vitesse du vent
fx = gusts
dd = Direction du vent
ppp = reduced air pressure
vv = visibility
sd = Ensoleillement
rr = Quantités de précipitations

stations d'obs. à proximité